Weather in Patras

Greece     38°14′37″N   21°43′59″E
В апреле 2022 года жителям России запретили посещать сайт meteo.paraplan.net по решению Генеральной прокуратуры. Аудитория сайта уменьшилась в 10 раз. Владельцы сайта не видят смысла в поддержке погодного сервера в таких условиях. Сайт будет закрыт в октябре.
temp.,
°C
wind,
m/s
gust,
m/s
humid.,
%
clouds,
%
prec.,
mm/h
press.,
hPa
HPBL,
m
4 october, tue
tue400:00+20e116557 0.0 1013125
03:00+20ene456485 0.0 1013269
06:00+19ene68690 0.0 1013415
09:00+20ene67600 0.0 1015432
12:00+22ene65481 0.0 1016854
15:00+23ne64430 0.0 1016781
18:00+22ne32420 0.0 1017559
21:00+20ene44513 0.0 1019244
5 october, wed
wed500:00+19ene55530 0.0 1020256
03:00+18ene66570 0.0 1021278
06:00+18e67570 0.0 1021351
09:00+18e78500 0.0 1023459
12:00+21ene76460 0.0 1023885
15:00+22ne85431 0.0 10221036
18:00+21ene765043 0.0 1023791
21:00+19ene675813 0.0 1024414
6 october, thu
thu600:00+18e566111 0.0 1025333
03:00+17ene56605 0.0 1025368
06:00+16ene56575 0.0 1024393
09:00+17ene56495 0.0 1025397
12:00+21ne54335 0.0 1025972
15:00+22n2330100 0.0 1023878
18:00+21w1237100 0.0 1023369
21:00+19e22408 0.0 1024148
7 october, fri
fri700:00+19ene4546100 0.0 1024252
03:00+18ene4548100 0.0 1023233
06:00+18ene5643100 0.0 1022231
09:00+19ene67395 0.0 1022322
12:00+23ene66330 0.0 1022859
15:00+24ne553219 0.0 1021707
18:00+24ene56346 0.0 1020375
21:00+21ene674641 0.0 1021247
8 october, sat
sat800:00+19ene56485 0.0 1022247
03:00+19ene454410 0.0 1021204
06:00+18ene44425 0.0 1021173
09:00+19ene45414 0.0 1020258
12:00+23ne54345 0.0 1020791
15:00+23n223574 0.0 1018674
18:00+22w2140100 0.0 1019344
21:00+20sse014745 0.0 1019163